TimeCDT,TemperatureF,Dew PointF,Humidity,Sea Level PressureIn,VisibilityMPH,Wind Direction,Wind SpeedMPH,Gust SpeedMPH,PrecipitationIn,Events,Conditions,WindDirDegrees,DateUTC
12:14 AM,48.2,46.4,93,29.71,9.0,WNW,11.5,-,0.00,Rain,Light Rain,300,2013-10-07 05:14:00
12:47 AM,48.2,46.4,93,29.71,6.0,WNW,11.5,-,0.03,Rain,Light Rain,300,2013-10-07 05:47:00
12:54 AM,48.9,46.9,93,29.72,3.0,WNW,10.4,-,0.04,Rain,Light Rain,300,2013-10-07 05:54:00
1:22 AM,48.2,46.4,93,29.72,5.0,NNW,13.8,19.6,0.00,,Overcast,330,2013-10-07 06:22:00
1:29 AM,48.2,46.4,93,29.73,4.0,NW,12.7,-,0.00,Rain,Light Rain,320,2013-10-07 06:29:00
1:54 AM,48.0,46.0,93,29.75,10.0,NNW,15.0,24.2,0.00,,Overcast,330,2013-10-07 06:54:00
2:06 AM,48.2,44.6,87,29.73,10.0,NNW,10.4,-,N/A,,Overcast,340,2013-10-07 07:06:00
2:45 AM,46.4,42.8,87,29.75,10.0,NNW,11.5,-,N/A,,Scattered Clouds,340,2013-10-07 07:45:00
2:54 AM,46.0,42.1,86,29.76,10.0,NNW,11.5,-,N/A,,Partly Cloudy,340,2013-10-07 07:54:00
3:54 AM,44.1,41.0,89,29.78,10.0,WNW,8.1,-,N/A,,Partly Cloudy,300,2013-10-07 08:54:00
4:19 AM,42.8,41.0,93,29.77,10.0,WNW,6.9,-,N/A,,Scattered Clouds,300,2013-10-07 09:19:00
4:52 AM,44.6,42.8,93,29.78,10.0,WNW,5.8,-,N/A,,Mostly Cloudy,300,2013-10-07 09:52:00
4:54 AM,45.0,43.0,93,29.80,10.0,WNW,5.8,-,N/A,,Mostly Cloudy,300,2013-10-07 09:54:00
5:01 AM,44.6,42.8,93,29.78,10.0,WNW,10.4,-,N/A,,Mostly Cloudy,300,2013-10-07 10:01:00
5:54 AM,45.0,43.0,93,29.81,10.0,NW,8.1,-,N/A,,Overcast,310,2013-10-07 10:54:00
6:54 AM,44.1,42.1,93,29.83,10.0,WNW,5.8,-,N/A,,Overcast,290,2013-10-07 11:54:00
7:26 AM,44.6,42.8,93,29.82,10.0,WNW,8.1,-,N/A,,Mostly Cloudy,300,2013-10-07 12:26:00
7:54 AM,44.1,43.0,96,29.85,10.0,West,6.9,-,N/A,,Overcast,280,2013-10-07 12:54:00
8:54 AM,45.0,43.0,93,29.88,9.0,WNW,10.4,-,N/A,,Overcast,290,2013-10-07 13:54:00
9:54 AM,48.9,45.0,86,29.90,10.0,WNW,9.2,-,N/A,,Scattered Clouds,290,2013-10-07 14:54:00
10:54 AM,54.0,45.0,72,29.91,10.0,West,9.2,-,N/A,,Clear,280,2013-10-07 15:54:00
11:54 AM,59.0,46.0,62,29.92,10.0,West,9.2,-,N/A,,Clear,280,2013-10-07 16:54:00
12:54 PM,61.0,43.0,52,29.92,10.0,WNW,10.4,-,N/A,,Partly Cloudy,290,2013-10-07 17:54:00
1:54 PM,63.0,43.0,48,29.92,10.0,NW,13.8,18.4,N/A,,Scattered Clouds,310,2013-10-07 18:54:00
2:54 PM,63.0,39.9,43,29.94,10.0,WNW,10.4,20.7,N/A,,Clear,290,2013-10-07 19:54:00
3:54 PM,63.0,39.9,43,29.95,10.0,West,11.5,18.4,N/A,,Clear,280,2013-10-07 20:54:00
4:54 PM,62.1,39.0,43,29.96,10.0,WNW,11.5,-,N/A,,Clear,290,2013-10-07 21:54:00
5:54 PM,59.0,39.9,49,29.97,10.0,WNW,4.6,-,N/A,,Clear,290,2013-10-07 22:54:00
6:54 PM,52.0,42.1,69,29.99,10.0,West,3.5,-,N/A,,Clear,270,2013-10-07 23:54:00
7:54 PM,48.9,42.1,77,30.02,10.0,Calm,Calm,-,N/A,,Clear,0,2013-10-08 00:54:00
8:54 PM,48.0,42.1,80,30.04,10.0,Calm,Calm,-,N/A,,Clear,0,2013-10-08 01:54:00
9:54 PM,46.0,41.0,83,30.06,10.0,Calm,Calm,-,N/A,,Clear,0,2013-10-08 02:54:00
10:54 PM,45.0,41.0,86,30.06,10.0,Calm,Calm,-,N/A,,Clear,0,2013-10-08 03:54:00
11:54 PM,44.1,41.0,89,30.06,10.0,Calm,Calm,-,N/A,,Clear,0,2013-10-08 04:54:00